[[{"header":{"parameterUnit":"m.s-1","parameterCategory":1,"la1":30.2991,"la2":30.254,"lo1":-89.0895,"lo2":-89.0444,"dy":0.0017,"dx":0.0017,"nx":28,"ny":28,"refTime":"2023-08-02T03:00:00:Z","depth":0,"parameterNumber":2,"parameterNumberName":"U-component_of_WINDS"},"data":[0,0,0,0,0,0,0,0,0,0,0,0,0,0,0,0,0,0,0,0,0,0,0,0,0,0,0,0,0,0,0,0,0,0,0,0,0,0,0,0,0,0,0,0,0,0,0,0,0,0,0,0,0,0,0,0,0,0,0.567,0.5671,0,0.5739,0.574,0.5741,0.5778,0.5778,0.5778,0.5778,0.5848,0.5849,0.5851,0,0,0,0,0,0,0,0,0,0,0,0,0,0.5567,0.5569,0.567,0.5671,0.5672,0.5739,0.574,0.5741,0.5778,0.5778,0.5778,0.5778,0.5847,0.5849,0.5851,0,0,0,0,0,0,0,0,0,0,0,0,0,0.5621,0.5569,0.567,0.5698,0.5701,0.5739,0.574,0.5741,0.5778,0.5778,0.5778,0.5778,0.5846,0.5849,0.5851,0.5866,0,0,0.586,0.5861,0,0,0,0,0,0,0,0,0.5618,0.5625,0.5693,0.5696,0.57,0.575,0.5729,0.5783,0.5778,0.5749,0.5778,0.5778,0.5815,0.582,0.5833,0.5869,0.5872,0.586,0.5861,0.5863,0.5863,0,0,0,0,0,0,0,0.5614,0.5622,0.5697,0.5694,0.5698,0.5707,0.5714,0.574,0.578,0.5751,0.5754,0.5762,0.5817,0.583,0.5835,0.5873,0.586,0.5862,0.5864,0.5865,0.5923,0.5923,0,0,0,0,0,0,0.5606,0.5619,0.5695,0.5699,0.5659,0.5708,0.5717,0.5734,0.578,0.5787,0.5762,0.5763,0.5826,0.5832,0.5837,0.5856,0.5863,0.5865,0.5867,0.5923,0.5923,0.5923,0,0,0,0,0,0,0.5604,0.5613,0.5692,0.566,0.5671,0.571,0.5728,0.5735,0.5749,0.5788,0.5795,0.5768,0.5826,0.5834,0.5858,0.5859,0.5866,0.5869,0.5923,0.5923,0.5923,0.5895,0,0,0,0,0,0,0.5601,0.5612,0.5618,0.566,0.5672,0.5712,0.5728,0.5736,0.5753,0.5756,0.5796,0.5803,0.5827,0.5854,0.5861,0.5863,0.5871,0.5923,0.5923,0.5923,0.5896,0.5893,0.5892,0,0,0,0,0,0.5597,0.5607,0.5618,0.5627,0.5681,0.5712,0.572,0.5747,0.5753,0.5759,0.5785,0.5801,0.5858,0.5856,0.5864,0.5867,0.5923,0.5923,0.5923,0.5896,0.5894,0.5892,0,0,0,0,0,0,0.5565,0.5613,0.5626,0.565,0.5677,0.5719,0.5728,0.5744,0.5769,0.5771,0.5804,0.5812,0.5833,0.5853,0.585,0.5883,0.5892,0.5894,0.5869,0.5867,0.5865,0.586,0.5873,0,0,0,0,0,0.556,0.5582,0.5623,0.5641,0.5653,0.5688,0.5703,0.5722,0.575,0.5762,0.5789,0.5816,0.5839,0.5854,0.5879,0.5898,0.5907,0.5904,0.5902,0.5901,0.5901,0.5912,0.5911,0.5922,0.5922,0.5922,0,0,0.5551,0.5581,0.5593,0.5635,0.5658,0.5679,0.5697,0.5719,0.5735,0.5765,0.579,0.581,0.5842,0.5864,0.5875,0.5881,0.59,0.59,0.5899,0.5901,0.5912,0.5911,0.591,0.5922,0.5922,0.5922,0,0,0.5546,0.5571,0.5588,0.561,0.5645,0.5668,0.5671,0.571,0.5725,0.5751,0.5774,0.5792,0.5833,0.5855,0.5871,0.5872,0.5888,0.5879,0.5869,0.588,0.5879,0.5878,0.5878,0.5878,0.588,0.588,0.588,0,0.5531,0.5565,0.5594,0.5615,0.5632,0.566,0.5677,0.5697,0.5737,0.5748,0.5754,0.5805,0.5829,0.5856,0.5856,0.5868,0.5873,0.5875,0.5877,0.5876,0.5876,0.5877,0.5877,0.5879,0.5879,0.5879,0.5879,0,0.5543,0.5566,0.5575,0.5614,0.5632,0.5651,0.5682,0.5697,0.5714,0.5736,0.5761,0.579,0.582,0.5828,0.5845,0.5857,0.5859,0.587,0.5881,0.5873,0.5874,0.5875,0.5877,0.5877,0.5877,0.5878,0,0,0.5521,0.5575,0.5577,0.5595,0.5634,0.5652,0.5671,0.5701,0.5713,0.5739,0.5755,0.5788,0.5799,0.5817,0.5836,0.5845,0.5844,0.5856,0.5857,0.5852,0.5858,0.5849,0.5849,0.5855,0.5855,0.5855,0.5855,0,0.5521,0.5557,0.5584,0.561,0.563,0.5657,0.5673,0.5699,0.5719,0.5739,0.5762,0.5784,0.5797,0.5808,0.5818,0.5842,0.5846,0.5842,0.587,0.587,0.5861,0.585,0.5841,0.584,0.5856,0.5856,0.5856,0,0.5526,0.5552,0.558,0.5616,0.5626,0.564,0.5669,0.5688,0.5717,0.5731,0.5751,0.5771,0.5791,0.5799,0.5827,0.5824,0.5837,0.585,0.5851,0.5854,0.5863,0.5852,0.584,0.584,0.5857,0.5857,0.5857,0,0.5506,0.5547,0.5569,0.5583,0.5627,0.5636,0.5654,0.5683,0.5699,0.5724,0.5734,0.5761,0.5775,0.5795,0.5821,0.5825,0.5846,0.5857,0.5858,0.5857,0.5862,0.5861,0.5851,0.587,0.587,0.587,0.587,0,0.5504,0.5519,0.5561,0.5574,0.5592,0.5622,0.5639,0.5659,0.5685,0.5702,0.5726,0.5741,0.5775,0.5794,0.5815,0.5834,0.5841,0.5853,0.5858,0.585,0.5849,0.5859,0.5859,0.587,0.587,0.587,0.587,0,0.5484,0.5513,0.5538,0.5577,0.5587,0.5598,0.5631,0.5644,0.5666,0.5687,0.5693,0.5727,0.5751,0.5779,0.5812,0.5825,0.5843,0.5851,0.5833,0.5836,0.5836,0.5835,0.5832,0.5832,0.5851,0.5851,0.5851,0,0.5481,0.5494,0.5533,0.5547,0.5564,0.5585,0.5602,0.5631,0.5647,0.568,0.5689,0.5714,0.5737,0.5773,0.58,0.5825,0.5834,0.583,0.5837,0.5829,0.5833,0.5832,0.5833,0.5829,0.5828,0.5828,0.5828,0,0.5472,0.5485,0.5507,0.5534,0.5553,0.5575,0.5599,0.5608,0.5642,0.5658,0.5683,0.57,0.5733,0.5758,0.5786,0.5804,0.5821,0.5825,0.5827,0.5819,0.5808,0.5813,0.5828,0.5825,0.5825,0.5826,0.5826,0.5826,0.546,0.5472,0.5502,0.5526,0.5546,0.5567,0.5582,0.5605,0.5626,0.5655,0.5671,0.5695,0.5723,0.5762,0.578,0.5798,0.5804,0.5807,0.5807,0.5807,0.5805,0.5805,0.5804,0.5804,0.5804,0.5804,0.5804,0,0.5451,0.5471,0.5493,0.5525,0.5544,0.5558,0.5585,0.5599,0.562,0.5644,0.5665,0.5693,0.5716,0.5745,0.577,0.578,0.5788,0.5785,0.5785,0.5789,0.5798,0.5794,0.5778,0.5778,0.5778,0.5778,0.5778,0.5778,0.5449,0.547,0.5486,0.5518,0.5537,0.5561,0.5575,0.5594,0.5614,0.5643,0.5663,0.5682,0.5707,0.5735,0.5757,0.5765,0.5773,0.5767,0.5777,0.5786,0.5788,0.579,0.5786,0.5769,0.5769,0.5766,0.5766,0.5766]},{"header":{"parameterUnit":"m.s-1","parameterCategory":1,"la1":30.2991,"la2":30.254,"lo1":-89.0895,"lo2":-89.0444,"dy":0.0017,"dx":0.0017,"nx":28,"ny":28,"refTime":"2023-08-02T03:00:00:Z","depth":0,"parameterNumber":3,"parameterNumberName":"V-component_of_WINDS"},"data":[0,0,0,0,0,0,0,0,0,0,0,0,0,0,0,0,0,0,0,0,0,0,0,0,0,0,0,0,0,0,0,0,0,0,0,0,0,0,0,0,0,0,0,0,0,0,0,0,0,0,0,0,0,0,0,0,0,0,3.4615,3.4614,0,3.4585,3.4585,3.4585,3.451,3.4508,3.4507,3.4505,3.4477,3.4478,3.4478,0,0,0,0,0,0,0,0,0,0,0,0,0,3.4607,3.4608,3.4615,3.4614,3.4614,3.4585,3.4585,3.4585,3.451,3.4508,3.4506,3.4505,3.4477,3.4478,3.4478,0,0,0,0,0,0,0,0,0,0,0,0,0,3.4597,3.4608,3.4615,3.4573,3.4569,3.4586,3.4585,3.4585,3.4511,3.4508,3.4506,3.4504,3.4476,3.4478,3.4479,3.4533,0,0,3.4482,3.4482,0,0,0,0,0,0,0,0,3.4598,3.4598,3.458,3.4576,3.4572,3.4549,3.4572,3.4567,3.4511,3.4533,3.4505,3.4503,3.4503,3.4502,3.4501,3.4532,3.4531,3.4482,3.4483,3.4483,3.4483,0,0,0,0,0,0,0,3.4599,3.4599,3.4603,3.458,3.4575,3.4557,3.4553,3.4571,3.4532,3.4531,3.4525,3.4523,3.45,3.4501,3.45,3.453,3.4482,3.4483,3.4484,3.4484,3.4602,3.4605,0,0,0,0,0,0,3.4605,3.46,3.4604,3.4602,3.4579,3.4559,3.4554,3.4559,3.4531,3.4525,3.4525,3.452,3.45,3.4499,3.4499,3.456,3.4483,3.4484,3.4485,3.46,3.4603,3.4606,0,0,0,0,0,0,3.4605,3.4606,3.4605,3.4599,3.4598,3.4561,3.4567,3.4559,3.4559,3.4527,3.452,3.4532,3.4498,3.4497,3.4525,3.4558,3.4485,3.4486,3.4597,3.4601,3.4604,3.4683,0,0,0,0,0,0,3.4606,3.4607,3.4627,3.46,3.4598,3.4631,3.4569,3.4561,3.4561,3.4554,3.4532,3.4526,3.4496,3.4524,3.4526,3.4558,3.4486,3.4594,3.4599,3.4603,3.4677,3.4689,3.4699,0,0,0,0,0,3.4606,3.4651,3.4628,3.4629,3.4623,3.4633,3.4632,3.4597,3.4564,3.4584,3.4563,3.4527,3.4554,3.4527,3.4529,3.4562,3.4592,3.4597,3.4603,3.4672,3.4686,3.4698,0,0,0,0,0,0,3.4683,3.4646,3.4621,3.4659,3.465,3.4621,3.4645,3.4613,3.4613,3.4606,3.4562,3.4558,3.4591,3.4579,3.455,3.4613,3.4567,3.4573,3.4619,3.4632,3.4643,3.4644,3.4487,0,0,0,0,0,3.4704,3.4715,3.4683,3.472,3.4716,3.4682,3.4685,3.4658,3.4647,3.4643,3.4624,3.4615,3.4621,3.4626,3.463,3.4675,3.4669,3.4699,3.471,3.4719,3.4724,3.4746,3.4759,3.4624,3.4624,3.4624,0,0,3.4748,3.473,3.474,3.4735,3.4724,3.4737,3.4679,3.4695,3.4704,3.4645,3.4669,3.4655,3.4642,3.4678,3.4693,3.467,3.476,3.4726,3.4734,3.4734,3.4753,3.4766,3.4778,3.4628,3.4627,3.4627,0,0,3.4835,3.4823,3.4851,3.4842,3.4826,3.4803,3.481,3.4786,3.4774,3.4797,3.4753,3.4764,3.4776,3.4768,3.4766,3.485,3.4816,3.4853,3.4909,3.4931,3.4941,3.495,3.4979,3.499,3.4859,3.4859,3.4859,0,3.4892,3.4908,3.487,3.4888,3.4887,3.4835,3.4863,3.4856,3.4844,3.4844,3.4818,3.4831,3.4819,3.4852,3.4872,3.4873,3.4879,3.4854,3.4943,3.4952,3.496,3.4987,3.4998,3.4863,3.4863,3.4863,3.4862,0,3.4979,3.4991,3.5016,3.5004,3.5006,3.503,3.4995,3.5001,3.4975,3.4955,3.4979,3.4962,3.4962,3.4968,3.4943,3.4997,3.4983,3.4951,3.4903,3.4978,3.5002,3.5012,3.487,3.4868,3.4867,3.4866,0,0,3.5112,3.5078,3.5088,3.5081,3.5061,3.507,3.5092,3.509,3.5096,3.509,3.5106,3.5118,3.5088,3.5085,3.5059,3.5078,3.5144,3.5043,3.5042,3.5061,3.5202,3.5225,3.5238,3.5122,3.5124,3.5125,3.5203,0,3.5192,3.5225,3.5191,3.5232,3.5242,3.5193,3.5211,3.5201,3.5183,3.519,3.517,3.5178,3.5138,3.5136,3.5153,3.5133,3.5172,3.5127,3.5136,3.5137,3.5139,3.5251,3.5276,3.5349,3.5212,3.5214,3.5215,0,3.529,3.5287,3.5328,3.5304,3.5308,3.5325,3.5321,3.5328,3.5315,3.5301,3.5298,3.5266,3.5285,3.524,3.5266,3.5236,3.5238,3.5229,3.5231,3.5229,3.5179,3.5251,3.5372,3.5383,3.523,3.5229,3.5228,0,3.5381,3.5388,3.5413,3.5409,3.5383,3.5396,3.5385,3.537,3.5372,3.5368,3.5369,3.5369,3.5368,3.5369,3.5337,3.5308,3.5367,3.532,3.5354,3.5355,3.5368,3.5367,3.549,3.5372,3.5372,3.5372,3.5372,0,3.5473,3.55,3.5453,3.5469,3.5497,3.5458,3.5488,3.5473,3.546,3.5471,3.543,3.5441,3.54,3.5408,3.5383,3.5408,3.5408,3.5397,3.539,3.5399,3.5401,3.5399,3.5393,3.5375,3.5374,3.5373,3.5373,0,3.5579,3.5549,3.5573,3.5546,3.5539,3.5562,3.5538,3.5552,3.5531,3.5546,3.5548,3.5515,3.5522,3.5491,3.5493,3.5476,3.5513,3.5498,3.5517,3.5511,3.5548,3.5544,3.5672,3.5687,3.5561,3.5563,3.5564,0,3.5639,3.5658,3.5633,3.5638,3.5629,3.5637,3.5638,3.5601,3.5604,3.5591,3.5606,3.5609,3.5609,3.5623,3.5599,3.56,3.5584,3.5629,3.5584,3.5593,3.5583,3.5582,3.5583,3.5638,3.564,3.5641,3.5642,0,3.5748,3.5732,3.5735,3.5733,3.5735,3.5731,3.5725,3.5731,3.5691,3.5696,3.5702,3.5703,3.5704,3.5708,3.5704,3.5694,3.5661,3.5657,3.5664,3.5674,3.5683,3.5677,3.5541,3.5653,3.5652,3.5651,3.5651,3.565,3.5832,3.5846,3.5831,3.5835,3.5826,3.5821,3.5832,3.5812,3.5817,3.5814,3.5792,3.5803,3.5789,3.5781,3.5774,3.5781,3.576,3.5772,3.5775,3.5778,3.5783,3.5684,3.5781,3.578,3.578,3.578,3.5779,0,3.5937,3.5925,3.5929,3.5921,3.5925,3.5894,3.5886,3.5891,3.59,3.589,3.5891,3.5898,3.5901,3.5879,3.5879,3.5889,3.5874,3.5891,3.5889,3.5887,3.5803,3.5795,3.5903,3.5903,3.5902,3.5902,3.5902,3.5902,3.5993,3.6015,3.5998,3.6016,3.6003,3.6012,3.6009,3.6005,3.5997,3.6006,3.6008,3.5993,3.5978,3.5977,3.5979,3.5972,3.5973,3.5995,3.5983,3.5905,3.5893,3.5881,3.5874,3.5996,3.5996,3.6065,3.6066,3.6066]}]]